Year,Month,Day,Hour,Minute,Value (Times are PST for insolation in W/m^2)
2008,03,02,00,00,0.00
2008,03,02,00,01,0.00
2008,03,02,00,02,0.00
2008,03,02,00,03,0.00
2008,03,02,00,04,0.00
2008,03,02,00,05,0.00
2008,03,02,00,06,0.00
2008,03,02,00,07,0.00
2008,03,02,00,08,0.00
2008,03,02,00,09,0.00
2008,03,02,00,10,0.00
2008,03,02,00,11,0.00
2008,03,02,00,12,0.00
2008,03,02,00,13,0.00
2008,03,02,00,14,0.00
2008,03,02,00,15,0.00
2008,03,02,00,16,0.00
2008,03,02,02,02,0.00
2008,03,02,02,03,0.00
2008,03,02,02,04,0.00
2008,03,02,02,05,0.00
2008,03,02,02,06,0.00
2008,03,02,02,07,0.00
2008,03,02,02,08,0.00
2008,03,02,02,09,0.00
2008,03,02,02,10,0.00
2008,03,02,02,11,0.00
2008,03,02,02,12,0.00
2008,03,02,02,13,0.00
2008,03,02,02,14,0.00
2008,03,02,02,15,0.00
2008,03,02,02,16,0.00
2008,03,02,02,17,0.00
2008,03,02,02,18,0.00
2008,03,02,02,19,0.00
2008,03,02,02,20,0.00
2008,03,02,02,21,0.00
2008,03,02,02,22,0.00
2008,03,02,02,23,0.00
2008,03,02,02,24,0.00
2008,03,02,02,25,0.00
2008,03,02,02,26,0.00
2008,03,02,02,27,0.00
2008,03,02,02,28,0.00
2008,03,02,02,29,0.00
2008,03,02,02,30,0.00
2008,03,02,02,31,0.00
2008,03,02,02,32,0.00
2008,03,02,02,33,0.00
2008,03,02,02,34,0.00
2008,03,02,02,35,0.00
2008,03,02,02,36,0.00
2008,03,02,02,37,0.00
2008,03,02,02,38,0.00
2008,03,02,02,39,0.00
2008,03,02,02,40,0.00
2008,03,02,02,41,0.00
2008,03,02,02,42,0.00
2008,03,02,02,43,0.00
2008,03,02,02,44,0.00
2008,03,02,02,45,0.00
2008,03,02,02,46,0.00
2008,03,02,02,47,0.00
2008,03,02,02,48,0.00
2008,03,02,02,49,0.00
2008,03,02,02,50,0.00
2008,03,02,02,51,0.00
2008,03,02,02,52,0.00
2008,03,02,02,53,0.00
2008,03,02,02,54,0.00
2008,03,02,02,55,0.00
2008,03,02,02,56,0.00
2008,03,02,02,57,0.00
2008,03,02,02,58,0.00
2008,03,02,02,59,0.00
2008,03,02,03,00,0.00
2008,03,02,03,01,0.00
2008,03,02,03,02,0.00
2008,03,02,03,03,0.00
2008,03,02,03,04,0.00
2008,03,02,03,05,0.00
2008,03,02,03,06,0.00
2008,03,02,03,07,0.00
2008,03,02,03,08,0.00
2008,03,02,03,09,0.00
2008,03,02,03,10,0.00
2008,03,02,03,11,0.00
2008,03,02,03,12,0.00
2008,03,02,03,13,0.00
2008,03,02,03,14,0.00
2008,03,02,03,15,0.00
2008,03,02,03,16,0.00
2008,03,02,03,17,0.00
2008,03,02,03,18,0.00
2008,03,02,03,19,0.00
2008,03,02,03,20,0.00
2008,03,02,03,21,0.00
2008,03,02,03,22,0.00
2008,03,02,03,23,0.00
2008,03,02,03,24,0.00
2008,03,02,03,25,0.00
2008,03,02,03,26,0.00
2008,03,02,03,27,0.00
2008,03,02,03,28,0.00
2008,03,02,03,29,0.00
2008,03,02,03,30,0.00
2008,03,02,03,31,0.00
2008,03,02,03,32,0.00
2008,03,02,03,33,0.00
2008,03,02,03,34,0.00
2008,03,02,03,35,0.00
2008,03,02,03,36,0.00
2008,03,02,03,37,0.00
2008,03,02,03,38,0.00
2008,03,02,03,39,0.00
2008,03,02,03,40,0.00
2008,03,02,03,41,0.00
2008,03,02,03,42,0.00
2008,03,02,03,43,0.00
2008,03,02,03,44,0.00
2008,03,02,03,45,0.00
2008,03,02,03,46,0.00
2008,03,02,03,47,0.00
2008,03,02,03,48,0.00
2008,03,02,03,49,0.00
2008,03,02,03,50,0.00
2008,03,02,03,51,0.00
2008,03,02,03,52,0.00
2008,03,02,03,53,0.00
2008,03,02,03,54,0.00
2008,03,02,03,55,0.00
2008,03,02,03,56,0.00
2008,03,02,03,57,0.00
2008,03,02,03,58,0.00
2008,03,02,03,59,0.00
2008,03,02,04,00,0.00
2008,03,02,04,01,0.00
2008,03,02,04,02,0.00
2008,03,02,04,03,0.00
2008,03,02,04,04,0.00
2008,03,02,04,05,0.00
2008,03,02,04,06,0.00
2008,03,02,04,07,0.00
2008,03,02,04,08,0.00
2008,03,02,04,09,0.00
2008,03,02,04,10,0.00
2008,03,02,04,11,0.00
2008,03,02,04,12,0.00
2008,03,02,04,13,0.00
2008,03,02,04,14,0.00
2008,03,02,04,15,0.00
2008,03,02,04,16,0.00
2008,03,02,04,17,0.00
2008,03,02,04,18,0.00
2008,03,02,04,19,0.00
2008,03,02,04,20,0.00
2008,03,02,04,21,0.00
2008,03,02,04,22,0.00
2008,03,02,04,23,0.00
2008,03,02,04,24,0.00
2008,03,02,04,25,0.00
2008,03,02,04,26,0.00
2008,03,02,04,27,0.00
2008,03,02,04,28,0.00
2008,03,02,04,29,0.00
2008,03,02,04,30,0.00
2008,03,02,04,31,0.00
2008,03,02,04,32,0.00
2008,03,02,04,33,0.00
2008,03,02,04,34,0.00
2008,03,02,04,35,0.00
2008,03,02,04,36,0.00
2008,03,02,04,37,0.00
2008,03,02,04,38,0.00
2008,03,02,04,39,0.00
2008,03,02,04,40,0.00
2008,03,02,04,41,0.00
2008,03,02,04,42,0.00
2008,03,02,04,43,0.00
2008,03,02,04,44,0.00
2008,03,02,04,45,0.00
2008,03,02,04,46,0.00
2008,03,02,04,47,0.00
2008,03,02,04,48,0.00
2008,03,02,04,49,0.00
2008,03,02,04,50,0.00
2008,03,02,04,51,0.00
2008,03,02,04,52,0.00
2008,03,02,04,53,0.00
2008,03,02,04,54,0.00
2008,03,02,04,55,0.00
2008,03,02,04,56,0.00
2008,03,02,04,57,0.00
2008,03,02,04,58,0.00
2008,03,02,04,59,0.00
2008,03,02,05,00,0.00
2008,03,02,05,01,0.00
2008,03,02,05,02,0.00
2008,03,02,05,03,0.00
2008,03,02,05,04,0.00
2008,03,02,05,05,0.00
2008,03,02,05,06,0.00
2008,03,02,05,07,0.00
2008,03,02,05,08,0.00
2008,03,02,05,09,0.00
2008,03,02,05,10,0.00
2008,03,02,05,11,0.00
2008,03,02,05,12,0.00
2008,03,02,05,13,0.00
2008,03,02,05,14,0.00
2008,03,02,05,15,0.00
2008,03,02,05,16,0.00
2008,03,02,05,17,0.00
2008,03,02,05,18,0.00
2008,03,02,05,19,0.00
2008,03,02,05,20,0.00
2008,03,02,05,21,0.00
2008,03,02,05,22,0.00
2008,03,02,05,23,0.00
2008,03,02,05,24,0.00
2008,03,02,05,25,0.00
2008,03,02,05,26,0.00
2008,03,02,05,27,0.00
2008,03,02,05,28,0.00
2008,03,02,05,29,0.00
2008,03,02,05,30,0.00
2008,03,02,05,31,0.00
2008,03,02,05,32,0.00
2008,03,02,05,33,0.00
2008,03,02,05,34,0.00
2008,03,02,05,35,0.00
2008,03,02,05,36,0.00
2008,03,02,05,37,0.00
2008,03,02,05,38,0.00
2008,03,02,05,39,0.00
2008,03,02,05,40,0.00
2008,03,02,05,41,0.00
2008,03,02,05,42,0.00
2008,03,02,05,43,0.00
2008,03,02,05,44,0.00
2008,03,02,05,45,0.00
2008,03,02,05,46,0.00
2008,03,02,05,47,0.00
2008,03,02,05,48,0.00
2008,03,02,05,49,0.00
2008,03,02,05,50,0.00
2008,03,02,05,51,0.00
2008,03,02,05,52,0.00
2008,03,02,05,53,0.00
2008,03,02,05,54,0.00
2008,03,02,05,55,0.00
2008,03,02,05,56,0.00
2008,03,02,05,57,0.00
2008,03,02,05,58,0.00
2008,03,02,05,59,0.00
2008,03,02,06,00,0.00
2008,03,02,06,01,0.00
2008,03,02,06,02,0.00
2008,03,02,06,03,0.00
2008,03,02,06,04,0.00
2008,03,02,06,05,0.00
2008,03,02,06,06,0.00
2008,03,02,06,07,0.00
2008,03,02,06,08,0.00
2008,03,02,06,09,0.00
2008,03,02,06,10,0.00
2008,03,02,06,11,0.00
2008,03,02,06,12,0.00
2008,03,02,06,13,0.00
2008,03,02,06,14,0.00
2008,03,02,06,15,0.00
2008,03,02,06,16,0.00
2008,03,02,06,17,0.00
2008,03,02,06,18,0.00
2008,03,02,06,19,0.00
2008,03,02,06,20,0.00
2008,03,02,06,21,0.00
2008,03,02,06,22,0.00
2008,03,02,06,23,0.00
2008,03,02,06,24,0.00
2008,03,02,06,25,0.00
2008,03,02,06,26,0.00
2008,03,02,06,27,0.00
2008,03,02,06,28,0.00
2008,03,02,06,29,0.00
2008,03,02,06,30,0.00
2008,03,02,06,31,0.00
2008,03,02,06,32,0.00
2008,03,02,06,33,0.00
2008,03,02,06,34,0.00
2008,03,02,06,35,0.00
2008,03,02,06,36,0.00
2008,03,02,06,37,0.00
2008,03,02,06,38,0.00
2008,03,02,06,39,0.00
2008,03,02,06,40,0.00
2008,03,02,06,41,0.00
2008,03,02,06,42,0.00
2008,03,02,06,43,0.00
2008,03,02,06,44,0.00
2008,03,02,06,45,0.00
2008,03,02,06,46,0.00
2008,03,02,06,47,0.00
2008,03,02,06,48,0.00
2008,03,02,06,49,0.00
2008,03,02,06,50,0.00
2008,03,02,06,51,0.00
2008,03,02,06,52,2.20
2008,03,02,06,53,5.00
2008,03,02,06,54,5.00
2008,03,02,06,55,5.00
2008,03,02,06,56,7.00
2008,03,02,06,57,7.00
2008,03,02,06,58,7.70
2008,03,02,06,59,9.00
2008,03,02,07,00,9.00
2008,03,02,07,01,9.00
2008,03,02,07,02,11.60
2008,03,02,07,03,14.00
2008,03,02,07,04,14.00
2008,03,02,07,05,15.30
2008,03,02,07,06,18.50
2008,03,02,07,07,20.20
2008,03,02,07,08,21.00
2008,03,02,07,09,21.00
2008,03,02,07,10,24.80
2008,03,02,07,11,25.00
2008,03,02,07,12,25.00
2008,03,02,07,13,25.00
2008,03,02,07,14,25.00
2008,03,02,07,15,25.00
2008,03,02,07,16,25.90
2008,03,02,07,17,25.90
2008,03,02,07,18,25.00
2008,03,02,07,19,25.00
2008,03,02,07,20,25.00
2008,03,02,07,21,25.00
2008,03,02,07,22,25.70
2008,03,02,07,23,26.00
2008,03,02,07,24,26.10
2008,03,02,07,25,28.40
2008,03,02,07,26,30.70
2008,03,02,07,27,32.00
2008,03,02,07,28,32.60
2008,03,02,07,29,34.50
2008,03,02,07,30,36.70
2008,03,02,07,31,39.10
2008,03,02,07,32,40.50
2008,03,02,07,33,42.70
2008,03,02,07,34,44.90
2008,03,02,07,35,46.00
2008,03,02,07,36,46.00
2008,03,02,07,37,48.50
2008,03,02,07,38,49.20
2008,03,02,07,39,51.00
2008,03,02,07,40,51.00
2008,03,02,07,41,51.00
2008,03,02,07,42,52.10
2008,03,02,07,43,53.00
2008,03,02,07,44,53.80
2008,03,02,07,45,54.20
2008,03,02,07,46,56.40
2008,03,02,07,47,58.00
2008,03,02,07,48,58.00
2008,03,02,07,49,58.00
2008,03,02,07,50,59.50
2008,03,02,07,51,60.00
2008,03,02,07,52,60.00
2008,03,02,07,53,60.00
2008,03,02,07,54,60.70
2008,03,02,07,55,62.50
2008,03,02,07,56,63.00
2008,03,02,07,57,63.00
2008,03,02,07,58,63.00
2008,03,02,07,59,64.90
2008,03,02,08,00,65.50
2008,03,02,08,01,67.00
2008,03,02,08,02,67.90
2008,03,02,08,03,69.00
2008,03,02,08,04,69.70
2008,03,02,08,05,70.00
2008,03,02,08,06,74.00
2008,03,02,08,07,74.00
2008,03,02,08,08,74.00
2008,03,02,08,09,75.00
2008,03,02,08,10,76.60
2008,03,02,08,11,77.00
2008,03,02,08,12,76.10
2008,03,02,08,13,76.00
2008,03,02,08,14,76.00
2008,03,02,08,15,76.30
2008,03,02,08,16,77.00
2008,03,02,08,17,77.00
2008,03,02,08,18,77.00
2008,03,02,08,19,77.00
2008,03,02,08,20,77.00
2008,03,02,08,21,78.30
2008,03,02,08,22,83.30
2008,03,02,08,23,84.00
2008,03,02,08,24,85.20
2008,03,02,08,25,87.40
2008,03,02,08,26,88.00
2008,03,02,08,27,90.00
2008,03,02,08,28,91.00
2008,03,02,08,29,91.00
2008,03,02,08,30,91.00
2008,03,02,08,31,94.60
2008,03,02,08,32,97.80
2008,03,02,08,33,98.00
2008,03,02,08,34,98.40
2008,03,02,08,35,102.50
2008,03,02,08,36,104.30
2008,03,02,08,37,105.00
2008,03,02,08,38,105.00
2008,03,02,08,39,109.20
2008,03,02,08,40,112.70
2008,03,02,08,41,114.20
2008,03,02,08,42,116.00
2008,03,02,08,43,116.00
2008,03,02,08,44,116.00
2008,03,02,08,45,117.20
2008,03,02,08,46,118.00
2008,03,02,08,47,120.60
2008,03,02,08,48,123.10
2008,03,02,08,49,125.00
2008,03,02,08,50,126.10
2008,03,02,08,51,128.00
2008,03,02,08,52,128.00
2008,03,02,08,53,129.40
2008,03,02,08,54,131.70
2008,03,02,08,55,134.50
2008,03,02,08,56,139.80
2008,03,02,08,57,142.70
2008,03,02,08,58,145.00
2008,03,02,08,59,147.70
2008,03,02,09,00,149.00
2008,03,02,09,01,150.70
2008,03,02,09,02,151.00
2008,03,02,09,03,151.00
2008,03,02,09,04,151.00
2008,03,02,09,05,151.00
2008,03,02,09,06,151.00
2008,03,02,09,07,153.90
2008,03,02,09,08,159.20
2008,03,02,09,09,160.20
2008,03,02,09,10,162.00
2008,03,02,09,11,162.00
2008,03,02,09,12,162.00
2008,03,02,09,13,165.00
2008,03,02,09,14,167.00
2008,03,02,09,15,167.00
2008,03,02,09,16,167.90
2008,03,02,09,17,177.90
2008,03,02,09,18,185.00
2008,03,02,09,19,191.00
2008,03,02,09,20,202.40
2008,03,02,09,21,206.80
2008,03,02,09,22,207.00
2008,03,02,09,23,177.20
2008,03,02,09,24,199.80
2008,03,02,09,25,246.40
2008,03,02,09,26,271.20
2008,03,02,09,27,285.00
2008,03,02,09,28,285.00
2008,03,02,09,29,285.00
2008,03,02,09,30,311.60
2008,03,02,09,31,311.20
2008,03,02,09,32,308.90
2008,03,02,09,33,306.00
2008,03,02,09,34,294.00
2008,03,02,09,35,322.00
2008,03,02,09,36,335.70
2008,03,02,09,37,338.40
2008,03,02,09,38,343.40
2008,03,02,09,39,346.00
2008,03,02,09,40,348.00
2008,03,02,09,41,351.00
2008,03,02,09,42,359.30
2008,03,02,09,43,363.70
2008,03,02,09,44,366.00
2008,03,02,09,45,367.40
2008,03,02,09,46,369.70
2008,03,02,09,47,371.90
2008,03,02,09,48,373.60
2008,03,02,09,49,374.00
2008,03,02,09,50,374.00
2008,03,02,09,51,383.00
2008,03,02,09,52,387.20
2008,03,02,09,53,389.40
2008,03,02,09,54,392.90
2008,03,02,09,55,394.00
2008,03,02,09,56,394.00
2008,03,02,09,57,395.70
2008,03,02,09,58,397.00
2008,03,02,09,59,397.00
2008,03,02,10,00,404.40
2008,03,02,10,01,422.00
2008,03,02,10,02,416.80
2008,03,02,10,03,410.00
2008,03,02,10,04,453.40
2008,03,02,10,05,460.10
2008,03,02,10,06,452.00
2008,03,02,10,07,453.00
2008,03,02,10,08,452.60
2008,03,02,10,09,447.00
2008,03,02,10,10,443.60
2008,03,02,10,11,439.80
2008,03,02,10,12,439.00
2008,03,02,10,13,438.00
2008,03,02,10,14,434.70
2008,03,02,10,15,436.00
2008,03,02,10,16,434.80
2008,03,02,10,17,432.60
2008,03,02,10,18,435.40
2008,03,02,10,19,431.00
2008,03,02,10,20,434.00
2008,03,02,10,21,446.00
2008,03,02,10,22,446.00
2008,03,02,10,23,458.40
2008,03,02,10,24,463.10
2008,03,02,10,25,463.60
2008,03,02,10,26,461.20
2008,03,02,10,27,462.00
2008,03,02,10,28,464.10
2008,03,02,10,29,468.00
2008,03,02,10,30,468.00
2008,03,02,10,31,471.50
2008,03,02,10,32,473.00
2008,03,02,10,33,473.00
2008,03,02,10,34,473.00
2008,03,02,10,35,356.50
2008,03,02,10,36,104.00
2008,03,02,10,37,333.80
2008,03,02,10,38,501.00
2008,03,02,10,39,501.00
2008,03,02,10,40,501.00
2008,03,02,10,41,503.90
2008,03,02,10,42,510.40
2008,03,02,10,43,506.00
2008,03,02,10,44,506.00
2008,03,02,10,45,499.00
2008,03,02,10,46,494.30
2008,03,02,10,47,494.00
2008,03,02,10,48,495.20
2008,03,02,10,49,499.00
2008,03,02,10,50,498.10
2008,03,02,10,51,499.40
2008,03,02,10,52,501.00
2008,03,02,10,53,501.00
2008,03,02,10,54,502.80
2008,03,02,10,55,521.30
2008,03,02,10,56,527.10
2008,03,02,10,57,529.00
2008,03,02,10,58,537.40
2008,03,02,10,59,551.20
2008,03,02,11,00,554.00
2008,03,02,11,01,563.50
2008,03,02,11,02,564.00
2008,03,02,11,03,407.90
2008,03,02,11,04,118.00
2008,03,02,11,05,118.00
2008,03,02,11,06,455.50
2008,03,02,11,07,568.00
2008,03,02,11,08,555.60
2008,03,02,11,09,563.00
2008,03,02,11,10,578.30
2008,03,02,11,11,592.00
2008,03,02,11,12,609.50
2008,03,02,11,13,622.60
2008,03,02,11,14,624.00
2008,03,02,11,15,623.70
2008,03,02,11,16,626.10
2008,03,02,11,17,647.30
2008,03,02,11,18,652.00
2008,03,02,11,19,668.20
2008,03,02,11,20,663.90
2008,03,02,11,21,645.10
2008,03,02,11,22,643.00
2008,03,02,11,23,578.80
2008,03,02,11,24,322.00
2008,03,02,11,25,388.30
2008,03,02,11,26,463.10
2008,03,02,11,27,461.90
2008,03,02,11,28,461.00
2008,03,02,11,29,469.90
2008,03,02,11,30,550.00
2008,03,02,11,31,550.00
2008,03,02,11,32,550.00
2008,03,02,11,33,550.00
2008,03,02,11,34,550.00
2008,03,02,11,35,550.00
2008,03,02,11,36,550.00
2008,03,02,11,37,577.40
2008,03,02,11,38,687.00
2008,03,02,11,39,687.00
2008,03,02,11,40,687.00
2008,03,02,11,41,687.00
2008,03,02,11,42,687.00
2008,03,02,11,43,667.60
2008,03,02,11,44,503.00
2008,03,02,11,45,503.00
2008,03,02,11,46,487.00
2008,03,02,11,47,454.60
2008,03,02,11,48,445.00
2008,03,02,11,49,392.30
2008,03,02,11,50,374.30
2008,03,02,11,51,373.00
2008,03,02,11,52,371.60
2008,03,02,11,53,359.50
2008,03,02,11,54,335.50
2008,03,02,11,55,313.70
2008,03,02,11,56,294.30
2008,03,02,11,57,283.60
2008,03,02,11,58,269.50
2008,03,02,11,59,264.60
2008,03,02,12,00,263.00
2008,03,02,12,01,262.00
2008,03,02,12,02,262.00
2008,03,02,12,03,260.30
2008,03,02,12,04,256.80
2008,03,02,12,05,254.20
2008,03,02,12,06,248.20
2008,03,02,12,07,238.70
2008,03,02,12,08,229.70
2008,03,02,12,09,222.60
2008,03,02,12,10,215.10
2008,03,02,12,11,210.60
2008,03,02,12,12,207.00
2008,03,02,12,13,206.60
2008,03,02,12,14,207.40
2008,03,02,12,15,211.90
2008,03,02,12,16,218.40
2008,03,02,12,17,225.90
2008,03,02,12,18,228.00
2008,03,02,12,19,237.80
2008,03,02,12,20,241.00
2008,03,02,12,21,241.00
2008,03,02,12,22,243.80
2008,03,02,12,23,246.00
2008,03,02,12,24,247.70
2008,03,02,12,25,248.00
2008,03,02,12,26,248.00
2008,03,02,12,27,248.00
2008,03,02,12,28,254.70
2008,03,02,12,29,265.00
2008,03,02,12,30,267.00
2008,03,02,12,31,273.00
2008,03,02,12,32,279.40
2008,03,02,12,33,286.80
2008,03,02,12,34,296.80
2008,03,02,12,35,302.00
2008,03,02,12,36,311.60
2008,03,02,12,37,326.20
2008,03,02,12,38,335.00
2008,03,02,12,39,346.00
2008,03,02,12,40,366.00
2008,03,02,12,41,394.90
2008,03,02,12,42,414.00
2008,03,02,12,43,417.80
2008,03,02,12,44,398.00
2008,03,02,12,45,378.40
2008,03,02,12,46,376.00
2008,03,02,12,47,370.80
2008,03,02,12,48,355.00
2008,03,02,12,49,350.00
2008,03,02,12,50,345.00
2008,03,02,12,51,348.70
2008,03,02,12,52,361.90
2008,03,02,12,53,388.50
2008,03,02,12,54,416.60
2008,03,02,12,55,421.70
2008,03,02,12,56,390.20
2008,03,02,12,57,368.80
2008,03,02,12,58,359.10
2008,03,02,12,59,364.60
2008,03,02,13,00,374.00
2008,03,02,13,01,374.00
2008,03,02,13,02,353.40
2008,03,02,13,03,314.10
2008,03,02,13,04,316.00
2008,03,02,13,05,318.00
2008,03,02,13,06,318.00
2008,03,02,13,07,315.10
2008,03,02,13,08,315.00
2008,03,02,13,09,316.00
2008,03,02,13,10,318.00
2008,03,02,13,11,318.00
2008,03,02,13,12,327.00
2008,03,02,13,13,331.70
2008,03,02,13,14,332.00
2008,03,02,13,15,330.80
2008,03,02,13,16,325.20
2008,03,02,13,17,322.50
2008,03,02,13,18,328.40
2008,03,02,13,19,338.80
2008,03,02,13,20,350.80
2008,03,02,13,21,352.50
2008,03,02,13,22,357.00
2008,03,02,13,23,356.30
2008,03,02,13,24,356.80
2008,03,02,13,25,359.00
2008,03,02,13,26,364.60
2008,03,02,13,27,372.10
2008,03,02,13,28,358.30
2008,03,02,13,29,351.00
2008,03,02,13,30,348.00
2008,03,02,13,31,354.30
2008,03,02,13,32,371.30
2008,03,02,13,33,423.50
2008,03,02,13,34,375.30
2008,03,02,13,35,352.30
2008,03,02,13,36,350.40
2008,03,02,13,37,359.40
2008,03,02,13,38,377.50
2008,03,02,13,39,385.90
2008,03,02,13,40,388.00
2008,03,02,13,41,440.20
2008,03,02,13,42,438.40
2008,03,02,13,43,374.00
2008,03,02,13,44,358.70
2008,03,02,13,45,332.00
2008,03,02,13,46,332.00
2008,03,02,13,47,290.00
2008,03,02,13,48,265.10
2008,03,02,13,49,260.00
2008,03,02,13,50,258.10
2008,03,02,13,51,249.20
2008,03,02,13,52,242.70
2008,03,02,13,53,234.50
2008,03,02,13,54,228.50
2008,03,02,13,55,227.00
2008,03,02,13,56,226.10
2008,03,02,13,57,218.00
2008,03,02,13,58,219.10
2008,03,02,13,59,222.80
2008,03,02,14,00,227.30
2008,03,02,14,01,227.50
2008,03,02,14,02,227.00
2008,03,02,14,03,222.50
2008,03,02,14,04,213.90
2008,03,02,14,05,207.00
2008,03,02,14,06,207.00
2008,03,02,14,07,192.60
2008,03,02,14,08,183.00
2008,03,02,14,09,183.00
2008,03,02,14,10,181.50
2008,03,02,14,11,186.00
2008,03,02,14,12,190.00
2008,03,02,14,13,189.00
2008,03,02,14,14,188.00
2008,03,02,14,15,182.80
2008,03,02,14,16,181.00
2008,03,02,14,17,181.00
2008,03,02,14,18,180.00
2008,03,02,14,19,174.70
2008,03,02,14,20,171.50
2008,03,02,14,21,169.70
2008,03,02,14,22,169.00
2008,03,02,14,23,169.00
2008,03,02,14,24,169.00
2008,03,02,14,25,169.40
2008,03,02,14,26,171.00
2008,03,02,14,27,171.00
2008,03,02,14,28,171.00
2008,03,02,14,29,178.00
2008,03,02,14,30,184.40
2008,03,02,14,31,185.70
2008,03,02,14,32,192.20
2008,03,02,14,33,193.00
2008,03,02,14,34,193.00
2008,03,02,14,35,193.00
2008,03,02,14,36,198.20
2008,03,02,14,37,205.90
2008,03,02,14,38,219.60
2008,03,02,14,39,216.00
2008,03,02,14,40,216.00
2008,03,02,14,41,216.00
2008,03,02,14,42,220.40
2008,03,02,14,43,223.00
2008,03,02,14,44,212.80
2008,03,02,14,45,213.30
2008,03,02,14,46,217.00
2008,03,02,14,47,219.30
2008,03,02,14,48,215.80
2008,03,02,14,49,213.00
2008,03,02,14,50,203.20
2008,03,02,14,51,193.10
2008,03,02,14,52,185.20
2008,03,02,14,53,180.20
2008,03,02,14,54,178.00
2008,03,02,14,55,177.10
2008,03,02,14,56,176.00
2008,03,02,14,57,174.50
2008,03,02,14,58,172.20
2008,03,02,14,59,171.10
2008,03,02,15,00,172.50
2008,03,02,15,01,174.00
2008,03,02,15,02,174.00
2008,03,02,15,03,172.20
2008,03,02,15,04,171.70
2008,03,02,15,05,177.10
2008,03,02,15,06,191.80
2008,03,02,15,07,207.00
2008,03,02,15,08,216.70
2008,03,02,15,09,237.50
2008,03,02,15,10,245.60
2008,03,02,15,11,250.00
2008,03,02,15,12,250.00
2008,03,02,15,13,249.60
2008,03,02,15,14,244.60
2008,03,02,15,15,239.00
2008,03,02,15,16,240.00
2008,03,02,15,17,242.90
2008,03,02,15,18,248.60
2008,03,02,15,19,250.00
2008,03,02,15,20,247.00
2008,03,02,15,21,219.00
2008,03,02,15,22,214.90
2008,03,02,15,23,210.10
2008,03,02,15,24,207.00
2008,03,02,15,25,207.00
2008,03,02,15,26,207.00
2008,03,02,15,27,190.00
2008,03,02,15,28,192.50
2008,03,02,15,29,202.00
2008,03,02,15,30,202.00
2008,03,02,15,31,203.20
2008,03,02,15,32,205.40
2008,03,02,15,33,211.90
2008,03,02,15,34,214.60
2008,03,02,15,35,227.40
2008,03,02,15,36,218.20
2008,03,02,15,37,214.50
2008,03,02,15,38,211.40
2008,03,02,15,39,205.30
2008,03,02,15,40,199.80
2008,03,02,15,41,200.20
2008,03,02,15,42,203.10
2008,03,02,15,43,211.60
2008,03,02,15,44,219.10
2008,03,02,15,45,218.00
2008,03,02,15,46,218.00
2008,03,02,15,47,218.00
2008,03,02,15,48,177.40
2008,03,02,15,49,160.50
2008,03,02,15,50,149.20
2008,03,02,15,51,145.00
2008,03,02,15,52,144.00
2008,03,02,15,53,147.50
2008,03,02,15,54,150.70
2008,03,02,15,55,155.00
2008,03,02,15,56,155.00
2008,03,02,15,57,150.40
2008,03,02,15,58,143.80
2008,03,02,15,59,149.00
2008,03,02,16,00,151.00
2008,03,02,16,01,146.50
2008,03,02,16,02,140.30
2008,03,02,16,03,134.00
2008,03,02,16,04,130.90
2008,03,02,16,05,124.00
2008,03,02,16,06,121.20
2008,03,02,16,07,118.50
2008,03,02,16,08,116.30
2008,03,02,16,09,116.00
2008,03,02,16,10,116.00
2008,03,02,16,11,112.80
2008,03,02,16,12,107.00
2008,03,02,16,13,102.40
2008,03,02,16,14,97.80
2008,03,02,16,15,95.30
2008,03,02,16,16,94.80
2008,03,02,16,17,93.00
2008,03,02,16,18,93.00
2008,03,02,16,19,93.00
2008,03,02,16,20,93.00
2008,03,02,16,21,86.70
2008,03,02,16,22,83.20
2008,03,02,16,23,81.10
2008,03,02,16,24,80.50
2008,03,02,16,25,78.30
2008,03,02,16,26,76.50
2008,03,02,16,27,73.60
2008,03,02,16,28,69.80
2008,03,02,16,29,65.40
2008,03,02,16,30,62.10
2008,03,02,16,31,62.00
2008,03,02,16,32,59.20
2008,03,02,16,33,54.00
2008,03,02,16,34,54.00
2008,03,02,16,35,54.00
2008,03,02,16,36,54.00
2008,03,02,16,37,54.00
2008,03,02,16,38,54.40
2008,03,02,16,39,56.00
2008,03,02,16,40,56.00
2008,03,02,16,41,56.00
2008,03,02,16,42,51.10
2008,03,02,16,43,46.50
2008,03,02,16,44,46.00
2008,03,02,16,45,44.60
2008,03,02,16,46,38.30
2008,03,02,16,47,35.10
2008,03,02,16,48,33.00
2008,03,02,16,49,33.00
2008,03,02,16,50,28.80
2008,03,02,16,51,26.10
2008,03,02,16,52,26.00
2008,03,02,16,53,26.00
2008,03,02,16,54,26.00
2008,03,02,16,55,26.00
2008,03,02,16,56,26.00
2008,03,02,16,57,26.00
2008,03,02,16,58,26.00
2008,03,02,16,59,26.00
2008,03,02,17,00,26.00
2008,03,02,17,01,25.50
2008,03,02,17,02,25.00
2008,03,02,17,03,25.00
2008,03,02,17,04,25.00
2008,03,02,17,05,21.00
2008,03,02,17,06,18.80
2008,03,02,17,07,18.00
2008,03,02,17,08,17.00
2008,03,02,17,09,14.70
2008,03,02,17,10,14.00
2008,03,02,17,11,14.00
2008,03,02,17,12,12.00
2008,03,02,17,13,12.00
2008,03,02,17,14,12.00
2008,03,02,17,15,12.00
2008,03,02,17,16,12.00
2008,03,02,17,17,11.30
2008,03,02,17,18,11.00
2008,03,02,17,19,11.00
2008,03,02,17,20,11.00
2008,03,02,17,21,11.00
2008,03,02,17,22,11.00
2008,03,02,17,23,11.00
2008,03,02,17,24,11.00
2008,03,02,17,25,11.00
2008,03,02,17,26,11.00
2008,03,02,17,27,11.00
2008,03,02,17,28,11.00
2008,03,02,17,29,11.00
2008,03,02,17,30,11.00
2008,03,02,17,31,11.00
2008,03,02,17,32,11.00
2008,03,02,17,33,10.80
2008,03,02,17,34,9.00
2008,03,02,17,35,9.00
2008,03,02,17,36,9.00
2008,03,02,17,37,9.00
2008,03,02,17,38,9.00
2008,03,02,17,39,9.00
2008,03,02,17,40,8.80
2008,03,02,17,41,7.00
2008,03,02,17,42,7.00
2008,03,02,17,43,7.00
2008,03,02,17,44,5.80
2008,03,02,17,45,5.00
2008,03,02,17,46,5.00
2008,03,02,17,47,5.00
2008,03,02,17,48,5.00
2008,03,02,17,49,3.20
2008,03,02,17,50,0.00
2008,03,02,17,51,0.00
2008,03,02,17,52,0.00
2008,03,02,17,53,0.00
2008,03,02,17,54,0.00
2008,03,02,17,55,0.00
2008,03,02,17,56,0.00
2008,03,02,17,57,0.00
2008,03,02,17,58,0.00
2008,03,02,17,59,0.00
2008,03,02,18,00,0.00
2008,03,02,18,01,0.00
2008,03,02,18,02,0.00
2008,03,02,18,03,0.00
2008,03,02,18,04,0.00
2008,03,02,18,05,0.00
2008,03,02,18,06,0.00
2008,03,02,18,07,0.00
2008,03,02,18,08,0.00
2008,03,02,18,09,0.00
2008,03,02,18,10,0.00
2008,03,02,18,11,0.00
2008,03,02,18,12,0.00
2008,03,02,18,13,0.00
2008,03,02,18,14,0.00
2008,03,02,18,15,0.00
2008,03,02,18,16,0.00
2008,03,02,18,17,0.00
2008,03,02,18,18,0.00
2008,03,02,18,19,0.00
2008,03,02,18,20,0.00
2008,03,02,18,21,0.00
2008,03,02,18,22,0.00
2008,03,02,18,23,0.00
2008,03,02,18,24,0.00
2008,03,02,18,25,0.00
2008,03,02,18,26,0.00
2008,03,02,18,27,0.00
2008,03,02,18,28,0.00
2008,03,02,18,29,0.00
2008,03,02,18,30,0.00
2008,03,02,18,31,0.00
2008,03,02,18,32,0.00
2008,03,02,18,33,0.00
2008,03,02,18,34,0.00
2008,03,02,18,35,0.00
2008,03,02,18,36,0.00
2008,03,02,18,37,0.00
2008,03,02,18,38,0.00
2008,03,02,18,39,0.00
2008,03,02,18,40,0.00
2008,03,02,18,41,0.00
2008,03,02,18,42,0.00
2008,03,02,18,43,0.00
2008,03,02,18,44,0.00
2008,03,02,18,45,0.00
2008,03,02,18,46,0.00
2008,03,02,18,47,0.00
2008,03,02,18,48,0.00
2008,03,02,18,49,0.00
2008,03,02,18,50,0.00
2008,03,02,18,51,0.00
2008,03,02,18,52,0.00
2008,03,02,18,53,0.00
2008,03,02,18,54,0.00
2008,03,02,18,55,0.00
2008,03,02,18,56,0.00
2008,03,02,18,57,0.00
2008,03,02,18,58,0.00
2008,03,02,18,59,0.00
2008,03,02,19,00,0.00
2008,03,02,19,01,0.00
2008,03,02,19,02,0.00